Change the Weather History Date:

Friday, January 24, 2014

  Actual Average Record
Temperature  
Mean Temperature 36 °F 33 °F  
Max Temperature 58 °F 48 °F 70 °F (1970)
Min Temperature 14 °F 18 °F -5 °F (1969)
Degree Days  
Heating Degree Days 29 32  
Month to date heating degree days 765 788  
Since 1 July heating degree days 2944 3056  
Cooling Degree Days 0 0  
Month to date cooling degree days 0 0  
Year to date cooling degree days 0 0  
Moisture  
Dew Point 7 °F    
Average Humidity 41    
Maximum Humidity 73    
Minimum Humidity 8    
Precipitation  
Precipitation 0.00 in 0.01 in 0.17 in (1978)
Month to date precipitation 0.06 0.30  
Year to date precipitation 0.06 0.30  
Sea Level Pressure  
Sea Level Pressure 30.31 in    
Wind  
Wind Speed 11 mph (West)    
Max Wind Speed 23 mph    
Max Gust Speed 27 mph    
Visibility 10 miles    
Events Rain    
T = Trace of Precipitation, MM = Missing Value Source: NWS Daily Summary

Daily Weather History Graph

Daily Weather History Graph

Search for Another Location

Airport or City:

Trip Planner

Search our weather history database for the weather conditions in past years. The results will help you decide how hot, cold, wet, or windy it might be!

Date:

Astronomy

Jan. 24, 2014 Rise Set
Actual Time 7:06 AM MST 5:13 PM MST
Civil Twilight 6:38 AM MST 5:41 PM MST
Nautical Twilight 6:06 AM MST 6:12 PM MST
Astronomical Twilight 5:35 AM MST 6:43 PM MST
Moon 12:37 AM MST (1/24) 11:32 AM MST (1/24)
Length of Visible Light 11h 03m
Length of Day
10h 07m
Last Quarter, 44% of the Moon is Illuminated
Jan 24
Last Quarter
Jan 30
New
Feb 6
First Quarter
Feb 14
Full
Feb 22
Last Quarter

Hourly Weather History & Observations

Time (MST) Temp. Windchill Dew Point Humidity Pressure Visibility Wind Dir Wind Speed Gust Speed Precip Events Conditions
12:54 AM 17.1 °F 1.0 °F 8.1 °F 68% 30.50 in 10.0 mi WSW 18.4 mph - N/A   Clear
1:54 AM 17.1 °F 2.0 °F 8.1 °F 68% 30.47 in 10.0 mi WSW 16.1 mph - N/A   Clear
2:54 AM 17.1 °F 2.0 °F 7.0 °F 65% 30.46 in 10.0 mi West 16.1 mph - N/A   Clear
3:54 AM 15.1 °F 0.5 °F 5.0 °F 64% 30.45 in 10.0 mi WNW 13.8 mph - N/A   Clear
4:54 AM 21.0 °F 5.4 °F 7.0 °F 55% 30.41 in 10.0 mi WSW 20.7 mph - N/A   Clear
5:54 AM 21.9 °F 6.9 °F 6.1 °F 51% 30.42 in 10.0 mi WSW 19.6 mph - N/A   Clear
6:54 AM 14.0 °F 0.5 °F 3.9 °F 64% 30.47 in 10.0 mi West 11.5 mph - 0.00 in   Clear
7:54 AM 21.0 °F 8.1 °F 7.0 °F 55% 30.44 in 10.0 mi West 13.8 mph - 0.00 in   Clear
8:54 AM 28.0 °F 17.5 °F 10.9 °F 49% 30.41 in 10.0 mi West 12.7 mph - N/A   Clear
9:54 AM 37.0 °F 31.0 °F 15.1 °F 41% 30.39 in 10.0 mi West 8.1 mph - N/A   Clear
10:54 AM 46.0 °F 42.5 °F 17.1 °F 31% 30.33 in 10.0 mi West 6.9 mph - 0.00 in Rain Light Rain
11:54 AM 52.0 °F - 10.0 °F 19% 30.27 in 10.0 mi North 6.9 mph - 0.00 in Rain Light Rain
12:54 PM 54.0 °F - 3.0 °F 13% 30.21 in 10.0 mi Calm Calm - 0.00 in Rain Light Rain
1:54 PM 57.0 °F - -0.0 °F 10% 30.18 in 10.0 mi NW 11.5 mph - 0.00 in Rain Light Rain
2:54 PM 57.0 °F - -6.0 °F 8% 30.17 in 10.0 mi NW 10.4 mph - 0.00 in   Clear
3:54 PM 57.0 °F - -5.1 °F 8% 30.17 in 10.0 mi NNW 5.8 mph - N/A   Clear
4:54 PM 53.1 °F - 1.9 °F 12% 30.17 in 10.0 mi Calm Calm - N/A   Clear
5:54 PM 50.0 °F - 5.0 °F 16% 30.20 in 10.0 mi SSE 3.5 mph - N/A   Clear
6:54 PM 36.0 °F 32.1 °F 10.0 °F 34% 30.30 in 10.0 mi West 4.6 mph - N/A   Clear
7:54 PM 36.0 °F 27.1 °F 10.9 °F 36% 30.26 in 10.0 mi WSW 13.8 mph - N/A   Clear
8:54 PM 36.0 °F 27.1 °F 10.0 °F 34% 30.24 in 10.0 mi WSW 13.8 mph - N/A   Clear
9:54 PM 36.0 °F 26.3 °F 8.1 °F 31% 30.21 in 10.0 mi West 16.1 mph - N/A   Clear
10:54 PM 36.0 °F 27.5 °F 7.0 °F 30% 30.19 in 10.0 mi West 12.7 mph - N/A   Clear
11:54 PM 35.1 °F 25.5 °F 7.0 °F 31% 30.17 in 10.0 mi West 15.0 mph - N/A   Clear